Regional Weather Roundup
Issued by NWS

Home | Current Version | Previous Version | Text Only | Print | Product List | Glossary On
Versions: 1 2 3 4 5 6 7 8 9 10 11 12 13 14 15 16 17 18 19 20 21 22 23 24 25 26 27 28 29 30 31 32 33 34 35 36 37 38 39 40 41 42 43 44 45 46 47 48 49 50
000
ASUS44 KMEG 312010
RWRTN
TENNESSEE HOURLY STATE WEATHER ROUNDUP
NATIONAL WEATHER SERVICE MEMPHIS TN
300 PM CDT FRI JUL 31 2015

TNZ002-004-019-021-049-052-054-088>092-312100-
WEST TENNESSEE

CITY           SKY/WX    TMP DP  RH WIND       PRES   REMARKS
MEMPHIS INTL   MOSUNNY   92  63  38 N9G18     30.06F HX  93
NWS MEMPHIS      N/A     90 N/A N/A MISG        N/A
JACKSON        MOSUNNY   94  62  34 NE13      30.06S HX  94
DYERSBURG        N/A    N/A N/A N/A MISG        N/A
PARIS          SUNNY     86  66  51 VRB6      30.07F
LEXINGTON      SUNNY     88  64  45 VRB5      30.05F
$$

TNZ008-025-027-028-033-062-065-066-312100-
NORTH MIDDLE TENNESSEE

CITY           SKY/WX    TMP DP  RH WIND       PRES   REMARKS
NASHVILLE      MOSUNNY   90  59  35 N12       30.05F
CLARKSVILLE    SUNNY     88  62  41 N8        30.05F
SMYRNA         MOSUNNY   94  59  31 NE8       30.05F HX  93
CROSSVILLE     SUNNY     83  55  38 N8        30.09F
$$

TNZ061-075-076-078-094-096-097-312100-
SOUTH MIDDLE TENNESSEE

CITY           SKY/WX    TMP DP  RH WIND       PRES   REMARKS
FAYETTEVILLE   SUNNY     88  54  31 N13       30.04F
TULLAHOMA      SUNNY     84  55  37 NE10      30.06F
WINCHESTER     SUNNY     86  61  42 N12       30.04F
MCMINNVILLE    SUNNY     84  61  45 N10       30.06F
COLUMBIA       MOSUNNY   90  63  40 NE7       30.04F HX  90
SHELBYVILLE    SUNNY     88  63  42 NE9       30.05F
$$

TNZ017-018-042-046-047-312100-
NORTHEAST TENNESSEE

CITY           SKY/WX    TMP DP  RH WIND       PRES   REMARKS
TRI CITIES     MOSUNNY   86  54  33 VRB7      30.04F
ELIZABETHTON   CLEAR     82  57  42 W9        30.04F
$$

TNZ012-013-036-069-073-074-312100-
CENTRAL EAST TENNESSEE

CITY           SKY/WX    TMP DP  RH WIND       PRES   REMARKS
KNOXVILLE      MOSUNNY   86  57  37 NE10      30.01F
OAK RIDGE      SUNNY     88  58  36 VRB6      30.04F
GATLINBURG     CLEAR     84  57  39 VRB3      30.01F
MORRISTOWN     CLEAR     82  57  42 E3        30.05F
$$

TNZ083-085-099-312100-
SOUTHEAST TENNESSEE

CITY           SKY/WX    TMP DP  RH WIND       PRES   REMARKS
CHATTANOOGA    MOSUNNY   87  58  37 N12G21    30.00F
$$

SKY/WX REPORTED AS FAIR MEANS FEW OR NO CLOUDS BELOW
12 THOUSAND FEET.



USA.gov is the U.S. government's official web portal to all federal, state and local government web resources and services.